GFSNW_prec_precacc24_243.txt.gz
Total_Precipitation_Accumulation
0.00 0.00 0.00 0.00 0.00 0.00 0.00 0.00 0.00 0.00 0.00 0.00 0.00 0.00 0.00 0.00 0.00 0.00 0.00 0.00 0.00 0.00 0.00 0.00 0.00 0.00 0.00 0.00 0.00 0.00 0.00 0.00 0.00 0.00 0.00 0.00 0.00 0.00 0.00 0.00 0.01 0.02 0.14 0.11
0.00 0.00 0.00 0.00 0.00 0.00 0.00 0.00 0.00 0.00 0.00 0.00 0.00 0.00 0.00 0.00 0.00 0.00 0.00 0.00 0.00 0.00 0.00 0.00 0.00 0.00 0.00 0.00 0.00 0.00 0.00 0.00 0.00 0.00 0.00 0.00 0.00 0.00 0.00 0.01 0.02 0.05 0.21 0.06
0.00 0.00 0.00 0.00 0.00 0.00 0.00 0.00 0.00 0.00 0.00 0.00 0.00 0.00 0.00 0.00 0.00 0.00 0.00 0.00 0.00 0.00 0.00 0.00 0.00 0.00 0.00 0.00 0.00 0.00 0.00 0.00 0.00 0.00 0.00 0.00 0.00 0.00 0.00 0.00 0.04 0.05 0.05 0.03
0.01 0.01 0.00 0.00 0.00 0.00 0.00 0.00 0.00 0.00 0.00 0.00 0.00 0.00 0.00 0.00 0.00 0.00 0.00 0.00 0.00 0.00 0.00 0.00 0.00 0.00 0.00 0.00 0.00 0.00 0.00 0.00 0.00 0.00 0.00 0.00 0.00 0.00 0.00 0.00 0.00 0.08 0.01 0.02
0.01 0.01 0.01 0.02 0.01 0.01 0.00 0.00 0.00 0.00 0.00 0.00 0.00 0.00 0.00 0.00 0.00 0.00 0.00 0.00 0.00 0.00 0.00 0.00 0.00 0.00 0.00 0.00 0.00 0.00 0.00 0.00 0.00 0.00 0.00 0.00 0.00 0.00 0.02 0.01 0.01 0.00 0.00 0.00
0.07 0.07 0.07 0.08 0.05 0.03 0.01 0.01 0.00 0.01 0.02 0.00 0.00 0.00 0.00 0.00 0.00 0.00 0.00 0.00 0.00 0.00 0.00 0.00 0.00 0.00 0.00 0.00 0.00 0.00 0.00 0.00 0.00 0.00 0.00 0.00 0.00 0.00 0.00 0.00 0.00 0.00 0.01 0.00
0.15 0.16 0.16 0.22 0.20 0.15 0.08 0.04 0.03 0.05 0.05 0.01 0.00 0.00 0.00 0.00 0.00 0.00 0.00 0.00 0.00 0.00 0.00 0.00 0.00 0.00 0.00 0.00 0.00 0.00 0.00 0.00 0.00 0.00 0.00 0.00 0.00 0.00 0.00 0.00 0.01 0.03 0.01 0.00
0.32 0.32 0.32 0.37 0.32 0.37 0.26 0.14 0.10 0.17 0.17 0.03 0.01 0.02 0.04 0.03 0.04 0.03 0.02 0.01 0.01 0.00 0.00 0.00 0.00 0.00 0.00 0.00 0.00 0.00 0.00 0.00 0.00 0.00 0.00 0.00 0.00 0.00 0.00 0.00 0.04 0.01 0.01 0.00
0.60 0.67 0.66 0.68 0.65 0.83 0.76 0.47 0.34 0.46 0.47 0.22 0.07 0.13 0.12 0.14 0.10 0.05 0.01 0.01 0.01 0.00 0.00 0.00 0.00 0.01 0.01 0.00 0.00 0.00 0.00 0.00 0.00 0.01 0.05 0.00 0.00 0.00 0.00 0.00 0.05 0.01 0.00 0.00
0.43 0.58 0.74 0.88 1.06 1.30 1.05 0.92 0.78 1.13 1.02 0.49 0.22 0.30 0.27 0.19 0.14 0.14 0.03 0.01 0.01 0.00 0.00 0.02 0.02 0.01 0.00 0.00 0.00 0.00 0.00 0.00 0.01 0.02 0.10 0.00 0.00 0.00 0.00 0.01 0.00 0.00 0.00 0.00
0.52 0.72 0.82 0.96 1.15 1.32 1.28 1.34 1.22 1.39 1.25 0.81 0.35 0.22 0.21 0.18 0.17 0.18 0.08 0.02 0.00 0.00 0.02 0.02 0.00 0.00 0.00 0.00 0.00 0.00 0.00 0.01 0.02 0.04 0.08 0.01 0.00 0.00 0.00 0.00 0.00 0.00 0.00 0.00
0.28 0.37 0.46 0.58 0.81 0.97 1.06 1.24 1.39 1.45 1.36 1.04 0.47 0.27 0.16 0.09 0.07 0.06 0.05 0.03 0.02 0.02 0.01 0.01 0.01 0.01 0.00 0.00 0.00 0.00 0.00 0.00 0.01 0.01 0.01 0.00 0.00 0.00 0.00 0.00 0.00 0.00 0.00 0.00
0.10 0.15 0.23 0.34 0.45 0.44 0.45 0.53 0.86 0.95 0.88 0.58 0.33 0.15 0.09 0.06 0.04 0.03 0.07 0.05 0.02 0.01 0.00 0.03 0.04 0.03 0.00 0.00 0.00 0.00 0.00 0.00 0.00 0.00 0.00 0.00 0.00 0.00 0.00 0.00 0.00 0.00 0.00 0.00
0.06 0.09 0.13 0.22 0.30 0.28 0.26 0.34 0.44 0.39 0.35 0.28 0.09 0.01 0.01 0.01 0.03 0.05 0.05 0.03 0.01 0.01 0.01 0.06 0.06 0.03 0.00 0.00 0.00 0.00 0.01 0.00 0.00 0.00 0.00 0.00 0.00 0.00 0.00 0.00 0.00 0.00 0.00 0.00
0.04 0.06 0.13 0.25 0.27 0.19 0.16 0.21 0.23 0.15 0.20 0.23 0.06 0.02 0.01 0.01 0.01 0.01 0.01 0.01 0.01 0.02 0.03 0.04 0.03 0.01 0.00 0.00 0.00 0.00 0.00 0.00 0.00 0.00 0.00 0.00 0.00 0.00 0.00 0.00 0.00 0.00 0.00 0.00
0.07 0.10 0.15 0.17 0.15 0.10 0.07 0.16 0.11 0.05 0.04 0.08 0.02 0.00 0.00 0.00 0.00 0.01 0.03 0.03 0.01 0.01 0.02 0.01 0.00 0.00 0.00 0.00 0.00 0.00 0.00 0.00 0.00 0.00 0.00 0.00 0.00 0.00 0.00 0.00 0.00 0.00 0.00 0.00
0.13 0.21 0.20 0.16 0.16 0.13 0.04 0.03 0.01 0.02 0.03 0.02 0.00 0.00 0.00 0.00 0.01 0.05 0.07 0.05 0.02 0.01 0.01 0.01 0.00 0.00 0.00 0.01 0.00 0.00 0.00 0.00 0.00 0.00 0.00 0.00 0.00 0.00 0.00 0.00 0.00 0.00 0.00 0.00
0.29 0.33 0.30 0.27 0.20 0.16 0.08 0.01 0.00 0.00 0.04 0.02 0.01 0.00 0.00 0.00 0.02 0.03 0.03 0.02 0.00 0.00 0.00 0.00 0.00 0.00 0.00 0.00 0.00 0.00 0.00 0.00 0.00 0.00 0.00 0.00 0.00 0.00 0.00 0.00 0.00 0.00 0.00 0.00
0.27 0.14 0.09 0.11 0.10 0.06 0.05 0.02 0.00 0.00 0.01 0.01 0.01 0.00 0.00 0.00 0.00 0.00 0.00 0.00 0.00 0.01 0.01 0.00 0.00 0.01 0.01 0.00 0.00 0.00 0.00 0.00 0.00 0.00 0.00 0.00 0.00 0.00 0.00 0.00 0.00 0.01 0.00 0.00
0.06 0.08 0.17 0.21 0.11 0.03 0.02 0.04 0.07 0.07 0.05 0.02 0.00 0.00 0.00 0.00 0.00 0.00 0.00 0.01 0.01 0.02 0.01 0.03 0.04 0.03 0.02 0.00 0.00 0.00 0.00 0.00 0.00 0.01 0.01 0.01 0.01 0.00 0.00 0.00 0.00 0.01 0.01 0.01
0.11 0.13 0.28 0.14 0.02 0.07 0.15 0.14 0.09 0.05 0.02 0.02 0.00 0.00 0.00 0.00 0.00 0.00 0.00 0.01 0.01 0.01 0.02 0.05 0.04 0.05 0.02 0.00 0.00 0.00 0.00 0.00 0.00 0.00 0.00 0.01 0.03 0.03 0.02 0.01 0.00 0.00 0.01 0.03
0.10 0.09 0.07 0.07 0.10 0.09 0.14 0.11 0.03 0.01 0.00 0.00 0.00 0.00 0.00 0.00 0.00 0.00 0.00 0.00 0.01 0.00 0.02 0.05 0.04 0.04 0.01 0.00 0.00 0.00 0.00 0.00 0.00 0.00 0.00 0.00 0.00 0.01 0.02 0.01 0.02 0.02 0.02 0.03
0.13 0.28 0.24 0.08 0.10 0.04 0.02 0.01 0.00 0.00 0.00 0.01 0.00 0.00 0.00 0.00 0.00 0.00 0.00 0.00 0.00 0.00 0.03 0.03 0.03 0.02 0.01 0.00 0.00 0.00 0.00 0.00 0.00 0.00 0.00 0.00 0.00 0.00 0.01 0.02 0.01 0.02 0.02 0.04
0.51 0.46 0.34 0.12 0.02 0.00 0.00 0.00 0.00 0.00 0.00 0.00 0.00 0.00 0.00 0.00 0.00 0.00 0.00 0.00 0.00 0.02 0.02 0.01 0.03 0.02 0.00 0.00 0.00 0.00 0.00 0.00 0.00 0.00 0.00 0.00 0.00 0.00 0.00 0.01 0.03 0.05 0.05 0.05
0.72 0.41 0.17 0.07 0.00 0.01 0.01 0.01 0.01 0.01 0.00 0.00 0.00 0.00 0.00 0.00 0.00 0.00 0.00 0.01 0.01 0.00 0.01 0.02 0.03 0.01 0.00 0.00 0.00 0.00 0.00 0.00 0.00 0.00 0.00 0.00 0.00 0.00 0.00 0.01 0.03 0.03 0.04 0.04
0.49 0.23 0.09 0.02 0.00 0.03 0.01 0.00 0.00 0.00 0.00 0.00 0.00 0.00 0.00 0.00 0.00 0.00 0.00 0.00 0.00 0.01 0.02 0.02 0.02 0.00 0.00 0.00 0.00 0.00 0.00 0.00 0.00 0.00 0.00 0.00 0.00 0.01 0.02 0.02 0.01 0.01 0.03 0.04
0.46 0.17 0.06 0.02 0.01 0.01 0.01 0.00 0.00 0.00 0.00 0.00 0.00 0.00 0.00 0.00 0.00 0.00 0.00 0.00 0.00 0.01 0.01 0.00 0.00 0.00 0.00 0.00 0.00 0.01 0.00 0.00 0.00 0.00 0.00 0.00 0.00 0.01 0.01 0.01 0.01 0.02 0.05 0.06

GFSNW_prec_precacc24_249.txt.gz
Total_Precipitation_Accumulation
0.00 0.00 0.00 0.00 0.00 0.00 0.00 0.00 0.00 0.00 0.00 0.00 0.00 0.00 0.00 0.00 0.00 0.00 0.00 0.00 0.00 0.00 0.00 0.00 0.00 0.00 0.00 0.00 0.00 0.00 0.00 0.00 0.00 0.00 0.00 0.00 0.00 0.00 0.00 0.00 0.01 0.02 0.15 0.11
0.00 0.00 0.00 0.00 0.00 0.00 0.00 0.00 0.00 0.00 0.00 0.00 0.00 0.00 0.00 0.00 0.00 0.00 0.00 0.00 0.00 0.00 0.00 0.00 0.00 0.00 0.00 0.00 0.00 0.00 0.00 0.00 0.00 0.00 0.00 0.00 0.00 0.00 0.00 0.01 0.02 0.04 0.20 0.06
0.00 0.00 0.00 0.00 0.00 0.00 0.00 0.00 0.00 0.00 0.00 0.00 0.00 0.00 0.00 0.00 0.00 0.00 0.00 0.00 0.00 0.00 0.00 0.00 0.00 0.00 0.00 0.00 0.00 0.00 0.00 0.00 0.00 0.00 0.00 0.00 0.00 0.00 0.00 0.00 0.04 0.05 0.05 0.03
0.00 0.00 0.00 0.00 0.00 0.00 0.00 0.00 0.00 0.00 0.00 0.00 0.00 0.00 0.00 0.00 0.00 0.00 0.00 0.00 0.00 0.00 0.00 0.00 0.00 0.00 0.00 0.00 0.00 0.00 0.00 0.00 0.00 0.00 0.00 0.00 0.00 0.00 0.00 0.00 0.00 0.08 0.01 0.02
0.00 0.00 0.00 0.00 0.01 0.01 0.00 0.00 0.00 0.00 0.00 0.00 0.00 0.00 0.00 0.00 0.00 0.00 0.00 0.00 0.00 0.00 0.00 0.00 0.00 0.00 0.00 0.00 0.00 0.00 0.00 0.00 0.00 0.00 0.00 0.00 0.00 0.00 0.02 0.01 0.01 0.00 0.00 0.00
0.00 0.00 0.00 0.01 0.03 0.03 0.01 0.01 0.00 0.01 0.02 0.00 0.00 0.00 0.00 0.00 0.00 0.00 0.00 0.00 0.00 0.00 0.00 0.00 0.00 0.00 0.00 0.00 0.00 0.00 0.00 0.00 0.01 0.00 0.00 0.00 0.00 0.00 0.00 0.00 0.00 0.00 0.00 0.00
0.05 0.04 0.03 0.07 0.10 0.11 0.07 0.03 0.02 0.04 0.05 0.01 0.00 0.00 0.00 0.00 0.00 0.00 0.00 0.00 0.00 0.00 0.00 0.00 0.00 0.00 0.00 0.00 0.00 0.00 0.00 0.00 0.01 0.01 0.00 0.00 0.00 0.00 0.00 0.00 0.00 0.01 0.00 0.00
0.14 0.14 0.16 0.19 0.15 0.26 0.22 0.10 0.09 0.17 0.17 0.03 0.01 0.02 0.03 0.03 0.04 0.03 0.02 0.01 0.01 0.00 0.00 0.00 0.00 0.00 0.00 0.00 0.00 0.00 0.00 0.00 0.00 0.00 0.00 0.00 0.00 0.00 0.00 0.00 0.01 0.00 0.00 0.00
0.29 0.34 0.35 0.43 0.42 0.61 0.57 0.33 0.29 0.44 0.45 0.20 0.06 0.11 0.10 0.11 0.08 0.05 0.01 0.01 0.01 0.00 0.01 0.00 0.02 0.02 0.01 0.00 0.00 0.00 0.00 0.00 0.00 0.01 0.05 0.00 0.00 0.00 0.00 0.00 0.01 0.00 0.00 0.00
0.23 0.29 0.42 0.53 0.66 0.94 0.79 0.68 0.64 0.99 0.86 0.37 0.15 0.22 0.21 0.15 0.12 0.13 0.04 0.02 0.01 0.00 0.00 0.05 0.04 0.01 0.00 0.01 0.00 0.00 0.00 0.00 0.01 0.02 0.10 0.00 0.00 0.00 0.00 0.01 0.00 0.00 0.00 0.00
0.23 0.27 0.36 0.51 0.70 0.93 0.97 0.94 0.93 1.17 0.96 0.54 0.24 0.16 0.18 0.17 0.17 0.19 0.09 0.05 0.03 0.01 0.04 0.05 0.02 0.01 0.00 0.00 0.00 0.00 0.00 0.01 0.01 0.03 0.07 0.01 0.00 0.00 0.00 0.00 0.00 0.00 0.00 0.00
0.19 0.21 0.22 0.28 0.49 0.76 0.98 0.95 1.06 1.22 1.19 0.81 0.37 0.24 0.17 0.12 0.11 0.13 0.14 0.11 0.05 0.03 0.02 0.02 0.02 0.02 0.00 0.00 0.00 0.00 0.00 0.00 0.01 0.01 0.01 0.00 0.00 0.00 0.00 0.00 0.00 0.00 0.00 0.00
0.14 0.16 0.18 0.24 0.28 0.35 0.52 0.44 0.63 0.74 0.82 0.57 0.37 0.22 0.16 0.15 0.16 0.17 0.23 0.19 0.11 0.08 0.04 0.08 0.11 0.07 0.01 0.01 0.00 0.00 0.00 0.00 0.00 0.00 0.00 0.00 0.00 0.00 0.00 0.00 0.00 0.00 0.00 0.00
0.12 0.15 0.19 0.26 0.29 0.31 0.31 0.24 0.35 0.44 0.47 0.35 0.19 0.07 0.06 0.07 0.12 0.20 0.24 0.19 0.17 0.16 0.14 0.21 0.18 0.09 0.03 0.02 0.00 0.00 0.01 0.00 0.00 0.00 0.00 0.00 0.00 0.00 0.00 0.00 0.00 0.00 0.00 0.00
0.13 0.16 0.21 0.37 0.36 0.27 0.19 0.20 0.27 0.22 0.28 0.35 0.13 0.05 0.04 0.08 0.15 0.20 0.22 0.20 0.16 0.16 0.16 0.15 0.10 0.05 0.03 0.04 0.02 0.00 0.00 0.00 0.00 0.00 0.00 0.00 0.00 0.00 0.00 0.00 0.00 0.00 0.00 0.00
0.09 0.14 0.20 0.31 0.34 0.31 0.16 0.18 0.19 0.20 0.18 0.23 0.13 0.04 0.01 0.02 0.06 0.09 0.13 0.12 0.10 0.09 0.09 0.07 0.04 0.01 0.03 0.06 0.01 0.00 0.00 0.00 0.00 0.00 0.00 0.00 0.00 0.00 0.00 0.00 0.00 0.00 0.00 0.00
0.07 0.14 0.19 0.20 0.44 0.44 0.23 0.18 0.09 0.15 0.18 0.17 0.05 0.01 0.00 0.00 0.02 0.10 0.12 0.10 0.08 0.07 0.08 0.04 0.01 0.00 0.02 0.04 0.00 0.00 0.00 0.00 0.00 0.00 0.00 0.00 0.00 0.00 0.00 0.00 0.00 0.00 0.00 0.00
0.17 0.22 0.22 0.27 0.37 0.40 0.30 0.19 0.21 0.21 0.23 0.16 0.07 0.01 0.00 0.00 0.03 0.07 0.06 0.06 0.03 0.03 0.02 0.01 0.00 0.00 0.02 0.01 0.00 0.00 0.00 0.00 0.00 0.00 0.00 0.00 0.00 0.00 0.00 0.00 0.00 0.00 0.00 0.00
0.22 0.12 0.08 0.12 0.16 0.15 0.15 0.11 0.10 0.13 0.13 0.09 0.03 0.00 0.00 0.00 0.02 0.04 0.02 0.01 0.00 0.00 0.00 0.00 0.00 0.00 0.00 0.00 0.00 0.00 0.00 0.00 0.00 0.00 0.00 0.00 0.00 0.00 0.00 0.00 0.00 0.00 0.00 0.00
0.07 0.09 0.17 0.19 0.11 0.06 0.08 0.16 0.26 0.26 0.21 0.14 0.03 0.00 0.00 0.00 0.01 0.04 0.04 0.02 0.01 0.01 0.01 0.02 0.02 0.01 0.00 0.00 0.00 0.00 0.00 0.00 0.00 0.00 0.00 0.00 0.00 0.00 0.00 0.00 0.00 0.00 0.00 0.00
0.15 0.17 0.24 0.11 0.04 0.11 0.23 0.27 0.21 0.12 0.07 0.06 0.01 0.00 0.00 0.00 0.04 0.09 0.11 0.05 0.01 0.00 0.01 0.02 0.03 0.03 0.01 0.00 0.00 0.00 0.00 0.00 0.00 0.00 0.00 0.00 0.01 0.00 0.00 0.00 0.00 0.00 0.00 0.01
0.15 0.10 0.06 0.09 0.15 0.18 0.23 0.19 0.07 0.02 0.00 0.00 0.00 0.00 0.00 0.03 0.02 0.06 0.06 0.01 0.01 0.00 0.01 0.03 0.02 0.02 0.01 0.00 0.00 0.00 0.00 0.00 0.00 0.00 0.00 0.00 0.00 0.00 0.00 0.00 0.00 0.00 0.00 0.00
0.19 0.34 0.31 0.13 0.16 0.10 0.08 0.03 0.01 0.00 0.00 0.00 0.00 0.00 0.00 0.01 0.02 0.04 0.02 0.00 0.00 0.00 0.03 0.01 0.02 0.02 0.01 0.00 0.00 0.00 0.00 0.00 0.00 0.00 0.00 0.00 0.00 0.00 0.00 0.00 0.00 0.00 0.00 0.00
0.54 0.48 0.36 0.15 0.05 0.00 0.00 0.00 0.00 0.00 0.00 0.00 0.00 0.00 0.00 0.00 0.00 0.00 0.00 0.00 0.00 0.01 0.01 0.01 0.02 0.01 0.00 0.00 0.00 0.00 0.00 0.00 0.00 0.00 0.00 0.00 0.00 0.00 0.00 0.00 0.01 0.01 0.01 0.01
0.77 0.44 0.17 0.07 0.01 0.00 0.00 0.00 0.00 0.01 0.00 0.00 0.00 0.00 0.00 0.00 0.00 0.00 0.00 0.01 0.01 0.00 0.01 0.01 0.02 0.01 0.00 0.00 0.00 0.00 0.00 0.00 0.00 0.00 0.00 0.00 0.00 0.00 0.00 0.00 0.00 0.01 0.01 0.01
0.58 0.27 0.09 0.02 0.00 0.02 0.01 0.00 0.00 0.00 0.00 0.00 0.00 0.00 0.00 0.00 0.00 0.00 0.00 0.00 0.00 0.00 0.01 0.02 0.01 0.00 0.00 0.00 0.00 0.00 0.00 0.00 0.00 0.00 0.00 0.00 0.00 0.01 0.00 0.00 0.00 0.00 0.01 0.01
0.56 0.17 0.06 0.02 0.01 0.01 0.01 0.00 0.01 0.02 0.01 0.01 0.02 0.01 0.00 0.00 0.00 0.00 0.00 0.00 0.00 0.01 0.01 0.00 0.00 0.00 0.00 0.00 0.00 0.01 0.01 0.00 0.00 0.00 0.00 0.00 0.01 0.01 0.01 0.00 0.00 0.00 0.00 0.01

GFSNW_prec_precacc24_252.txt.gz
Total_Precipitation_Accumulation
0.00 0.00 0.00 0.00 0.00 0.00 0.00 0.00 0.00 0.00 0.00 0.00 0.00 0.00 0.00 0.00 0.00 0.00 0.00 0.00 0.00 0.00 0.00 0.00 0.00 0.00 0.00 0.00 0.00 0.00 0.00 0.00 0.00 0.00 0.00 0.00 0.00 0.00 0.00 0.00 0.01 0.02 0.15 0.11
0.00 0.00 0.00 0.00 0.00 0.00 0.00 0.00 0.00 0.00 0.00 0.00 0.00 0.00 0.00 0.00 0.00 0.00 0.00 0.00 0.00 0.00 0.00 0.00 0.00 0.00 0.00 0.00 0.00 0.00 0.00 0.00 0.00 0.00 0.00 0.00 0.00 0.00 0.00 0.01 0.02 0.04 0.20 0.06
0.00 0.00 0.00 0.00 0.00 0.00 0.00 0.00 0.00 0.00 0.00 0.00 0.00 0.00 0.00 0.00 0.00 0.00 0.00 0.00 0.00 0.00 0.00 0.00 0.00 0.00 0.00 0.00 0.00 0.00 0.00 0.00 0.00 0.00 0.00 0.00 0.00 0.00 0.00 0.00 0.04 0.05 0.05 0.03
0.00 0.00 0.00 0.00 0.00 0.00 0.00 0.00 0.00 0.00 0.00 0.00 0.00 0.00 0.00 0.00 0.00 0.00 0.00 0.00 0.00 0.00 0.00 0.00 0.00 0.00 0.00 0.00 0.00 0.00 0.00 0.00 0.00 0.00 0.00 0.00 0.00 0.00 0.00 0.00 0.00 0.08 0.01 0.02
0.00 0.00 0.00 0.00 0.00 0.00 0.00 0.00 0.00 0.00 0.00 0.00 0.00 0.00 0.00 0.00 0.00 0.00 0.00 0.00 0.00 0.00 0.00 0.00 0.00 0.00 0.00 0.00 0.00 0.00 0.00 0.00 0.00 0.00 0.00 0.00 0.00 0.00 0.02 0.01 0.01 0.00 0.00 0.00
0.00 0.00 0.00 0.00 0.00 0.00 0.00 0.00 0.00 0.01 0.02 0.00 0.00 0.00 0.00 0.00 0.00 0.00 0.00 0.00 0.00 0.00 0.00 0.00 0.00 0.00 0.00 0.00 0.00 0.00 0.00 0.00 0.01 0.01 0.00 0.00 0.00 0.00 0.00 0.00 0.00 0.00 0.00 0.00
0.04 0.03 0.02 0.02 0.01 0.03 0.03 0.02 0.01 0.03 0.04 0.01 0.00 0.00 0.00 0.00 0.00 0.00 0.00 0.00 0.00 0.00 0.00 0.00 0.00 0.00 0.00 0.00 0.00 0.00 0.00 0.00 0.02 0.01 0.00 0.00 0.00 0.00 0.00 0.00 0.00 0.00 0.00 0.00
0.09 0.09 0.12 0.15 0.08 0.12 0.10 0.05 0.05 0.13 0.13 0.03 0.01 0.02 0.03 0.02 0.03 0.02 0.02 0.01 0.01 0.00 0.00 0.00 0.01 0.00 0.00 0.00 0.00 0.00 0.00 0.00 0.02 0.01 0.00 0.00 0.00 0.00 0.00 0.00 0.00 0.00 0.00 0.00
0.25 0.26 0.25 0.27 0.27 0.43 0.41 0.19 0.20 0.33 0.34 0.16 0.05 0.09 0.07 0.08 0.07 0.04 0.01 0.01 0.01 0.00 0.01 0.01 0.03 0.01 0.00 0.00 0.00 0.00 0.00 0.00 0.01 0.02 0.05 0.00 0.00 0.00 0.00 0.00 0.00 0.00 0.00 0.00
0.25 0.27 0.34 0.42 0.51 0.77 0.60 0.42 0.44 0.74 0.64 0.27 0.12 0.15 0.14 0.11 0.11 0.13 0.03 0.02 0.01 0.00 0.01 0.05 0.05 0.01 0.00 0.01 0.00 0.00 0.00 0.00 0.02 0.03 0.10 0.00 0.00 0.00 0.00 0.00 0.00 0.00 0.00 0.00
0.29 0.30 0.33 0.37 0.53 0.75 0.81 0.69 0.69 0.87 0.68 0.34 0.15 0.11 0.14 0.15 0.16 0.19 0.09 0.06 0.04 0.02 0.05 0.07 0.03 0.03 0.01 0.00 0.00 0.00 0.00 0.01 0.02 0.04 0.08 0.01 0.00 0.00 0.00 0.00 0.00 0.00 0.00 0.00
0.36 0.30 0.28 0.31 0.42 0.64 0.89 0.75 0.79 0.89 0.86 0.54 0.24 0.19 0.17 0.12 0.11 0.13 0.14 0.12 0.05 0.05 0.04 0.03 0.04 0.05 0.02 0.01 0.01 0.00 0.00 0.00 0.01 0.01 0.01 0.00 0.00 0.00 0.00 0.00 0.00 0.00 0.00 0.00
0.35 0.36 0.32 0.31 0.34 0.38 0.55 0.41 0.50 0.61 0.75 0.54 0.37 0.23 0.16 0.15 0.16 0.19 0.23 0.21 0.12 0.10 0.05 0.10 0.16 0.14 0.03 0.02 0.00 0.00 0.00 0.00 0.00 0.01 0.00 0.00 0.00 0.00 0.00 0.00 0.00 0.00 0.00 0.00
0.29 0.32 0.35 0.35 0.34 0.41 0.49 0.33 0.37 0.47 0.54 0.43 0.23 0.08 0.07 0.07 0.13 0.21 0.26 0.22 0.19 0.19 0.19 0.29 0.27 0.14 0.06 0.04 0.00 0.00 0.00 0.00 0.00 0.01 0.00 0.00 0.00 0.00 0.00 0.00 0.00 0.00 0.00 0.00
0.22 0.29 0.32 0.46 0.46 0.42 0.38 0.41 0.43 0.31 0.37 0.45 0.16 0.07 0.06 0.10 0.17 0.23 0.25 0.23 0.20 0.21 0.23 0.22 0.15 0.09 0.07 0.08 0.05 0.01 0.00 0.00 0.00 0.00 0.00 0.00 0.00 0.00 0.00 0.00 0.00 0.00 0.00 0.00
0.17 0.26 0.31 0.43 0.47 0.44 0.31 0.41 0.45 0.44 0.36 0.42 0.24 0.08 0.03 0.05 0.08 0.12 0.16 0.16 0.13 0.13 0.13 0.11 0.07 0.03 0.07 0.13 0.02 0.00 0.00 0.00 0.00 0.00 0.00 0.00 0.00 0.00 0.00 0.00 0.00 0.00 0.00 0.00
0.13 0.23 0.33 0.38 0.63 0.60 0.38 0.32 0.19 0.29 0.35 0.44 0.31 0.14 0.06 0.06 0.09 0.17 0.19 0.16 0.13 0.12 0.12 0.06 0.02 0.02 0.08 0.07 0.00 0.00 0.00 0.00 0.00 0.00 0.00 0.00 0.00 0.00 0.00 0.00 0.00 0.00 0.00 0.00
0.18 0.28 0.29 0.47 0.62 0.62 0.47 0.31 0.36 0.37 0.40 0.38 0.25 0.09 0.02 0.01 0.06 0.10 0.10 0.09 0.06 0.05 0.03 0.01 0.00 0.00 0.02 0.01 0.00 0.00 0.00 0.00 0.00 0.00 0.00 0.00 0.00 0.00 0.00 0.00 0.00 0.00 0.00 0.00
0.24 0.17 0.18 0.30 0.42 0.32 0.30 0.29 0.25 0.23 0.23 0.21 0.09 0.00 0.00 0.00 0.02 0.06 0.05 0.05 0.03 0.01 0.00 0.00 0.00 0.00 0.00 0.00 0.00 0.00 0.00 0.00 0.00 0.00 0.00 0.00 0.00 0.00 0.00 0.00 0.00 0.00 0.00 0.00
0.12 0.15 0.21 0.24 0.23 0.25 0.30 0.27 0.34 0.38 0.30 0.20 0.04 0.00 0.00 0.00 0.04 0.10 0.12 0.06 0.01 0.01 0.00 0.01 0.01 0.01 0.00 0.00 0.00 0.00 0.00 0.00 0.00 0.00 0.00 0.00 0.00 0.00 0.00 0.00 0.00 0.00 0.00 0.00
0.21 0.23 0.21 0.11 0.12 0.21 0.34 0.41 0.31 0.23 0.14 0.11 0.03 0.00 0.00 0.02 0.10 0.16 0.19 0.07 0.01 0.00 0.01 0.01 0.02 0.03 0.01 0.00 0.00 0.00 0.00 0.00 0.00 0.00 0.00 0.00 0.00 0.00 0.00 0.00 0.00 0.00 0.00 0.00
0.21 0.16 0.07 0.10 0.16 0.20 0.27 0.25 0.12 0.06 0.05 0.03 0.02 0.03 0.04 0.07 0.06 0.10 0.09 0.03 0.03 0.01 0.01 0.02 0.01 0.02 0.00 0.00 0.00 0.00 0.00 0.00 0.00 0.00 0.00 0.00 0.00 0.00 0.00 0.00 0.00 0.00 0.00 0.00
0.30 0.44 0.36 0.14 0.17 0.10 0.08 0.03 0.01 0.02 0.02 0.03 0.02 0.03 0.02 0.03 0.05 0.08 0.06 0.03 0.01 0.00 0.02 0.01 0.01 0.01 0.01 0.00 0.00 0.00 0.00 0.00 0.00 0.00 0.00 0.00 0.00 0.00 0.00 0.00 0.00 0.00 0.00 0.00
0.66 0.56 0.40 0.16 0.05 0.00 0.00 0.00 0.00 0.00 0.00 0.00 0.00 0.00 0.01 0.00 0.01 0.02 0.01 0.01 0.00 0.01 0.01 0.00 0.01 0.01 0.00 0.00 0.00 0.00 0.00 0.00 0.00 0.00 0.00 0.00 0.00 0.00 0.00 0.00 0.00 0.01 0.01 0.01
0.82 0.47 0.17 0.07 0.00 0.00 0.00 0.00 0.00 0.00 0.00 0.00 0.00 0.01 0.01 0.02 0.04 0.01 0.00 0.01 0.00 0.00 0.00 0.01 0.01 0.01 0.00 0.00 0.00 0.00 0.00 0.00 0.00 0.00 0.00 0.00 0.00 0.00 0.00 0.00 0.00 0.01 0.01 0.01
0.63 0.30 0.10 0.02 0.00 0.02 0.00 0.00 0.00 0.00 0.00 0.01 0.02 0.02 0.04 0.04 0.02 0.00 0.00 0.00 0.00 0.00 0.01 0.01 0.01 0.00 0.00 0.00 0.00 0.00 0.00 0.00 0.00 0.00 0.00 0.00 0.01 0.01 0.01 0.00 0.00 0.00 0.01 0.01
0.60 0.17 0.06 0.02 0.01 0.01 0.01 0.00 0.01 0.02 0.03 0.06 0.07 0.07 0.05 0.04 0.01 0.00 0.00 0.00 0.00 0.01 0.01 0.01 0.00 0.00 0.00 0.00 0.00 0.00 0.01 0.00 0.00 0.00 0.00 0.01 0.01 0.01 0.00 0.00 0.00 0.00 0.00 0.01

GFSNW_prec_precacc24_258.txt.gz
Total_Precipitation_Accumulation
0.00 0.00 0.00 0.00 0.00 0.00 0.00 0.00 0.00 0.00 0.00 0.00 0.00 0.00 0.00 0.00 0.00 0.00 0.00 0.00 0.00 0.00 0.00 0.00 0.00 0.00 0.00 0.00 0.00 0.00 0.00 0.00 0.00 0.00 0.00 0.00 0.00 0.00 0.00 0.00 0.01 0.02 0.15 0.11
0.00 0.00 0.00 0.00 0.00 0.00 0.00 0.00 0.00 0.00 0.00 0.00 0.00 0.00 0.00 0.00 0.00 0.00 0.00 0.00 0.00 0.00 0.00 0.00 0.00 0.00 0.00 0.00 0.00 0.00 0.00 0.00 0.00 0.00 0.00 0.00 0.00 0.00 0.00 0.01 0.02 0.04 0.20 0.06
0.00 0.00 0.00 0.00 0.00 0.00 0.00 0.00 0.00 0.00 0.00 0.00 0.00 0.00 0.00 0.00 0.00 0.00 0.00 0.00 0.00 0.00 0.00 0.00 0.00 0.00 0.00 0.00 0.00 0.00 0.00 0.00 0.00 0.00 0.00 0.00 0.00 0.00 0.00 0.00 0.04 0.05 0.05 0.03
0.02 0.00 0.00 0.00 0.00 0.00 0.00 0.00 0.00 0.00 0.00 0.00 0.00 0.00 0.00 0.00 0.00 0.00 0.00 0.00 0.00 0.00 0.00 0.00 0.00 0.00 0.00 0.00 0.00 0.00 0.00 0.00 0.00 0.00 0.00 0.00 0.00 0.00 0.00 0.00 0.01 0.08 0.01 0.02
0.04 0.02 0.00 0.00 0.00 0.00 0.00 0.00 0.00 0.00 0.00 0.00 0.00 0.00 0.00 0.00 0.00 0.00 0.00 0.00 0.00 0.00 0.00 0.00 0.00 0.00 0.00 0.00 0.00 0.00 0.00 0.00 0.00 0.00 0.00 0.00 0.00 0.00 0.00 0.00 0.00 0.00 0.00 0.00
0.07 0.05 0.01 0.00 0.00 0.00 0.00 0.00 0.00 0.00 0.00 0.00 0.00 0.00 0.00 0.00 0.00 0.00 0.00 0.00 0.00 0.00 0.00 0.00 0.00 0.00 0.00 0.00 0.00 0.00 0.00 0.00 0.02 0.02 0.00 0.00 0.00 0.00 0.00 0.00 0.00 0.00 0.00 0.00
0.09 0.08 0.06 0.01 0.00 0.00 0.00 0.00 0.00 0.00 0.01 0.00 0.00 0.00 0.00 0.00 0.00 0.00 0.00 0.00 0.00 0.00 0.00 0.00 0.00 0.00 0.00 0.00 0.00 0.00 0.00 0.00 0.02 0.02 0.00 0.00 0.00 0.00 0.00 0.00 0.00 0.00 0.00 0.00
0.07 0.09 0.12 0.10 0.03 0.01 0.01 0.00 0.00 0.02 0.03 0.01 0.00 0.01 0.01 0.01 0.02 0.01 0.00 0.00 0.00 0.00 0.00 0.00 0.01 0.00 0.00 0.00 0.00 0.00 0.00 0.00 0.04 0.03 0.00 0.00 0.00 0.00 0.00 0.00 0.00 0.00 0.00 0.00
0.10 0.11 0.10 0.14 0.14 0.13 0.10 0.03 0.03 0.08 0.10 0.05 0.02 0.03 0.02 0.01 0.00 0.00 0.00 0.00 0.00 0.00 0.01 0.01 0.03 0.01 0.00 0.00 0.00 0.00 0.00 0.00 0.06 0.04 0.06 0.00 0.00 0.00 0.00 0.00 0.00 0.00 0.00 0.00
0.18 0.20 0.23 0.28 0.31 0.42 0.31 0.14 0.14 0.25 0.21 0.10 0.06 0.05 0.03 0.01 0.02 0.03 0.01 0.00 0.01 0.00 0.01 0.05 0.04 0.01 0.00 0.01 0.00 0.00 0.00 0.02 0.05 0.03 0.13 0.00 0.00 0.00 0.00 0.00 0.00 0.00 0.00 0.00
0.39 0.35 0.36 0.33 0.41 0.51 0.50 0.35 0.30 0.37 0.28 0.12 0.06 0.04 0.04 0.04 0.05 0.05 0.03 0.06 0.04 0.02 0.05 0.07 0.03 0.03 0.01 0.01 0.00 0.00 0.00 0.03 0.03 0.04 0.10 0.02 0.00 0.00 0.00 0.00 0.00 0.00 0.00 0.00
0.57 0.56 0.52 0.50 0.45 0.56 0.69 0.47 0.49 0.52 0.53 0.34 0.16 0.13 0.10 0.08 0.09 0.11 0.14 0.11 0.05 0.05 0.05 0.04 0.04 0.06 0.05 0.02 0.02 0.00 0.00 0.00 0.00 0.01 0.01 0.00 0.00 0.00 0.00 0.00 0.00 0.00 0.00 0.00
0.57 0.68 0.76 0.78 0.69 0.63 0.63 0.40 0.47 0.54 0.70 0.53 0.36 0.23 0.16 0.15 0.16 0.19 0.23 0.20 0.12 0.10 0.06 0.10 0.17 0.16 0.06 0.04 0.02 0.00 0.00 0.00 0.00 0.01 0.00 0.00 0.00 0.00 0.00 0.00 0.00 0.00 0.00 0.00
0.50 0.61 0.75 0.89 0.98 1.04 1.02 0.59 0.39 0.48 0.58 0.48 0.26 0.09 0.07 0.07 0.13 0.21 0.26 0.22 0.19 0.20 0.20 0.30 0.32 0.18 0.09 0.07 0.01 0.00 0.00 0.00 0.01 0.02 0.00 0.00 0.00 0.00 0.00 0.00 0.00 0.00 0.00 0.00
0.35 0.53 0.65 0.83 0.96 1.15 1.37 1.37 0.89 0.59 0.61 0.67 0.24 0.12 0.08 0.11 0.17 0.23 0.26 0.25 0.23 0.24 0.28 0.31 0.21 0.14 0.12 0.15 0.12 0.04 0.00 0.00 0.02 0.02 0.00 0.00 0.00 0.00 0.00 0.00 0.00 0.00 0.00 0.00
0.24 0.39 0.50 0.81 0.91 1.00 1.20 1.75 1.59 1.25 1.01 1.16 0.84 0.34 0.10 0.09 0.10 0.14 0.18 0.19 0.19 0.24 0.27 0.26 0.21 0.10 0.12 0.31 0.10 0.00 0.00 0.00 0.00 0.00 0.00 0.00 0.00 0.00 0.00 0.00 0.00 0.00 0.00 0.00
0.23 0.33 0.53 0.68 1.02 1.10 1.16 1.33 0.89 0.76 0.83 1.21 1.31 0.70 0.24 0.17 0.20 0.30 0.32 0.31 0.28 0.29 0.32 0.24 0.11 0.05 0.20 0.21 0.02 0.00 0.00 0.00 0.00 0.00 0.00 0.00 0.00 0.00 0.00 0.00 0.00 0.00 0.00 0.00
0.25 0.32 0.36 0.61 0.90 1.09 1.04 0.90 0.84 0.71 0.77 1.16 1.24 0.74 0.18 0.08 0.12 0.19 0.23 0.26 0.27 0.29 0.22 0.11 0.03 0.05 0.12 0.05 0.00 0.00 0.00 0.00 0.00 0.00 0.00 0.00 0.00 0.00 0.00 0.00 0.00 0.00 0.00 0.00
0.37 0.32 0.22 0.44 0.67 0.66 0.72 0.78 0.78 0.65 0.74 1.01 0.92 0.48 0.16 0.04 0.05 0.11 0.17 0.24 0.28 0.22 0.14 0.05 0.02 0.03 0.01 0.00 0.00 0.00 0.00 0.00 0.00 0.00 0.00 0.00 0.00 0.00 0.00 0.00 0.00 0.00 0.00 0.00
0.35 0.25 0.25 0.31 0.40 0.52 0.63 0.67 0.76 0.83 0.90 0.78 0.45 0.22 0.12 0.06 0.11 0.25 0.33 0.28 0.19 0.14 0.05 0.02 0.03 0.01 0.00 0.00 0.00 0.00 0.00 0.00 0.00 0.00 0.00 0.00 0.00 0.00 0.00 0.00 0.00 0.00 0.00 0.00
0.41 0.31 0.19 0.13 0.27 0.47 0.66 0.76 0.69 0.62 0.48 0.38 0.19 0.11 0.09 0.11 0.27 0.40 0.46 0.27 0.13 0.07 0.02 0.01 0.01 0.01 0.00 0.00 0.00 0.00 0.00 0.00 0.00 0.00 0.00 0.00 0.00 0.00 0.00 0.00 0.00 0.00 0.00 0.00
0.38 0.26 0.15 0.21 0.30 0.37 0.47 0.48 0.33 0.26 0.23 0.16 0.10 0.14 0.18 0.25 0.26 0.34 0.32 0.15 0.12 0.06 0.01 0.01 0.00 0.00 0.00 0.00 0.00 0.00 0.00 0.00 0.00 0.00 0.00 0.00 0.00 0.00 0.00 0.00 0.00 0.00 0.00 0.00
0.67 0.71 0.47 0.18 0.22 0.19 0.20 0.13 0.10 0.11 0.11 0.12 0.10 0.14 0.16 0.20 0.21 0.25 0.19 0.15 0.09 0.01 0.01 0.00 0.00 0.00 0.01 0.00 0.00 0.00 0.00 0.00 0.00 0.00 0.00 0.00 0.00 0.00 0.00 0.00 0.00 0.00 0.00 0.00
0.89 0.66 0.44 0.17 0.06 0.03 0.03 0.03 0.05 0.10 0.11 0.07 0.05 0.07 0.09 0.10 0.13 0.13 0.08 0.09 0.03 0.02 0.00 0.00 0.00 0.00 0.00 0.00 0.00 0.00 0.00 0.00 0.00 0.00 0.00 0.00 0.00 0.00 0.00 0.00 0.00 0.01 0.00 0.00
0.83 0.53 0.21 0.07 0.01 0.01 0.02 0.03 0.06 0.09 0.06 0.02 0.03 0.05 0.06 0.10 0.11 0.06 0.04 0.05 0.02 0.00 0.00 0.00 0.00 0.00 0.00 0.00 0.00 0.00 0.00 0.00 0.00 0.00 0.00 0.00 0.00 0.00 0.00 0.00 0.00 0.01 0.01 0.00
0.68 0.34 0.11 0.02 0.00 0.01 0.00 0.00 0.01 0.00 0.00 0.02 0.03 0.04 0.06 0.07 0.06 0.03 0.01 0.01 0.00 0.00 0.00 0.00 0.01 0.01 0.00 0.00 0.00 0.00 0.00 0.00 0.00 0.00 0.00 0.00 0.01 0.01 0.01 0.00 0.00 0.00 0.01 0.01
0.58 0.19 0.06 0.03 0.01 0.00 0.00 0.00 0.01 0.02 0.03 0.06 0.08 0.08 0.06 0.06 0.03 0.00 0.00 0.00 0.00 0.00 0.01 0.01 0.00 0.00 0.00 0.00 0.00 0.00 0.00 0.00 0.00 0.00 0.00 0.01 0.01 0.01 0.00 0.00 0.00 0.00 0.00 0.00

GFSNW_prec_precacc24_264.txt.gz
Total_Precipitation_Accumulation
0.01 0.01 0.01 0.00 0.00 0.00 0.00 0.00 0.00 0.00 0.00 0.00 0.00 0.00 0.00 0.00 0.00 0.00 0.00 0.00 0.00 0.00 0.00 0.00 0.00 0.00 0.00 0.00 0.00 0.00 0.00 0.00 0.00 0.00 0.00 0.00 0.00 0.00 0.00 0.00 0.00 0.01 0.04 0.03
0.01 0.01 0.01 0.02 0.03 0.01 0.00 0.00 0.00 0.00 0.00 0.00 0.00 0.00 0.00 0.00 0.00 0.00 0.00 0.00 0.00 0.00 0.00 0.00 0.00 0.00 0.00 0.00 0.00 0.00 0.00 0.00 0.00 0.00 0.00 0.00 0.00 0.00 0.00 0.00 0.00 0.02 0.04 0.01
0.03 0.03 0.05 0.06 0.09 0.05 0.00 0.00 0.00 0.00 0.00 0.00 0.00 0.00 0.00 0.00 0.00 0.00 0.00 0.00 0.00 0.00 0.00 0.00 0.00 0.00 0.00 0.00 0.00 0.00 0.00 0.00 0.00 0.00 0.00 0.00 0.00 0.00 0.00 0.00 0.01 0.01 0.00 0.00
0.07 0.07 0.10 0.14 0.19 0.19 0.02 0.00 0.00 0.00 0.00 0.00 0.00 0.00 0.00 0.00 0.00 0.00 0.00 0.00 0.00 0.00 0.00 0.00 0.00 0.00 0.00 0.00 0.00 0.00 0.00 0.00 0.00 0.00 0.00 0.00 0.00 0.00 0.00 0.00 0.00 0.01 0.00 0.00
0.14 0.17 0.17 0.21 0.29 0.33 0.14 0.00 0.00 0.00 0.00 0.00 0.00 0.00 0.00 0.00 0.00 0.00 0.00 0.00 0.00 0.00 0.00 0.00 0.00 0.00 0.00 0.00 0.00 0.00 0.00 0.00 0.00 0.00 0.00 0.00 0.00 0.00 0.00 0.00 0.00 0.00 0.00 0.00
0.21 0.23 0.26 0.29 0.40 0.51 0.30 0.04 0.00 0.00 0.00 0.00 0.00 0.00 0.00 0.00 0.00 0.00 0.00 0.00 0.00 0.00 0.00 0.00 0.00 0.00 0.00 0.00 0.00 0.00 0.00 0.00 0.02 0.02 0.00 0.00 0.00 0.00 0.00 0.00 0.00 0.00 0.00 0.00
0.21 0.26 0.30 0.36 0.47 0.59 0.42 0.16 0.04 0.00 0.00 0.00 0.00 0.00 0.00 0.00 0.00 0.00 0.00 0.00 0.00 0.00 0.00 0.00 0.00 0.00 0.00 0.00 0.00 0.00 0.00 0.00 0.02 0.02 0.00 0.00 0.00 0.00 0.00 0.00 0.00 0.00 0.00 0.00
0.16 0.23 0.33 0.45 0.54 0.56 0.50 0.25 0.14 0.03 0.00 0.00 0.00 0.00 0.00 0.00 0.00 0.00 0.00 0.00 0.00 0.00 0.00 0.00 0.01 0.00 0.00 0.00 0.00 0.00 0.00 0.00 0.04 0.04 0.00 0.00 0.00 0.00 0.00 0.00 0.00 0.00 0.00 0.00
0.16 0.19 0.29 0.44 0.60 0.65 0.60 0.32 0.21 0.12 0.03 0.00 0.00 0.00 0.00 0.00 0.00 0.00 0.00 0.00 0.00 0.00 0.01 0.01 0.03 0.01 0.00 0.00 0.00 0.00 0.00 0.00 0.06 0.05 0.04 0.00 0.00 0.00 0.00 0.00 0.00 0.00 0.00 0.00
0.20 0.21 0.26 0.38 0.52 0.68 0.78 0.45 0.25 0.28 0.16 0.02 0.00 0.00 0.00 0.00 0.01 0.01 0.00 0.00 0.00 0.00 0.01 0.05 0.04 0.01 0.00 0.01 0.00 0.00 0.00 0.02 0.06 0.03 0.10 0.00 0.00 0.00 0.00 0.00 0.00 0.00 0.00 0.00
0.40 0.36 0.37 0.39 0.52 0.72 1.01 0.60 0.33 0.51 0.37 0.10 0.02 0.01 0.01 0.02 0.03 0.04 0.02 0.06 0.04 0.02 0.05 0.07 0.03 0.03 0.01 0.01 0.00 0.00 0.00 0.02 0.03 0.03 0.09 0.02 0.00 0.00 0.00 0.00 0.00 0.00 0.00 0.00
0.59 0.54 0.48 0.49 0.50 0.71 1.09 0.80 0.44 0.58 0.78 0.41 0.09 0.06 0.06 0.06 0.08 0.11 0.14 0.11 0.05 0.05 0.05 0.04 0.04 0.06 0.05 0.02 0.02 0.00 0.00 0.00 0.00 0.00 0.00 0.00 0.00 0.00 0.00 0.00 0.00 0.00 0.00 0.00
0.64 0.74 0.80 0.78 0.74 0.84 1.18 0.88 0.56 0.88 1.01 0.67 0.34 0.17 0.12 0.13 0.16 0.19 0.23 0.20 0.12 0.10 0.06 0.10 0.16 0.15 0.06 0.04 0.02 0.00 0.00 0.00 0.00 0.00 0.00 0.00 0.00 0.00 0.00 0.00 0.00 0.00 0.00 0.00
0.59 0.73 0.88 1.03 1.11 1.26 1.49 1.24 0.74 0.94 1.01 0.82 0.43 0.10 0.07 0.07 0.13 0.21 0.26 0.22 0.19 0.19 0.20 0.29 0.29 0.17 0.09 0.06 0.01 0.00 0.00 0.00 0.02 0.04 0.00 0.02 0.01 0.00 0.00 0.00 0.00 0.00 0.00 0.00
0.42 0.62 0.77 0.95 1.10 1.38 1.83 2.02 1.49 1.04 1.12 0.96 0.40 0.17 0.09 0.11 0.17 0.23 0.26 0.25 0.23 0.24 0.27 0.29 0.20 0.13 0.12 0.16 0.14 0.05 0.00 0.00 0.03 0.05 0.01 0.05 0.04 0.01 0.00 0.00 0.00 0.00 0.00 0.00
0.32 0.48 0.60 0.90 1.07 1.28 1.73 2.42 2.22 1.87 1.61 1.76 1.12 0.45 0.12 0.09 0.10 0.13 0.17 0.18 0.19 0.24 0.28 0.28 0.25 0.12 0.14 0.39 0.16 0.00 0.00 0.00 0.00 0.01 0.03 0.06 0.05 0.01 0.00 0.00 0.00 0.00 0.00 0.00
0.33 0.43 0.63 0.79 1.20 1.40 1.68 1.93 1.36 1.29 1.58 2.23 2.12 1.11 0.35 0.19 0.22 0.32 0.36 0.36 0.36 0.39 0.46 0.41 0.28 0.15 0.32 0.42 0.13 0.01 0.00 0.00 0.00 0.04 0.11 0.11 0.03 0.00 0.00 0.00 0.00 0.00 0.00 0.00
0.33 0.41 0.43 0.69 1.06 1.34 1.32 1.20 1.16 1.05 1.41 2.28 2.32 1.37 0.39 0.15 0.16 0.27 0.37 0.45 0.53 0.62 0.60 0.48 0.28 0.29 0.45 0.36 0.11 0.01 0.01 0.07 0.16 0.18 0.12 0.05 0.01 0.00 0.00 0.00 0.00 0.00 0.00 0.00
0.47 0.60 0.50 0.72 0.86 0.82 0.87 1.03 1.13 1.09 1.56 2.22 1.91 0.99 0.35 0.13 0.11 0.19 0.33 0.48 0.64 0.68 0.56 0.37 0.29 0.33 0.30 0.19 0.08 0.05 0.13 0.22 0.20 0.12 0.04 0.01 0.00 0.00 0.00 0.00 0.00 0.00 0.00 0.00
0.63 0.66 0.50 0.50 0.44 0.62 0.81 0.98 1.16 1.30 1.57 1.55 1.11 0.64 0.32 0.19 0.19 0.38 0.59 0.68 0.62 0.58 0.36 0.26 0.30 0.22 0.10 0.11 0.19 0.22 0.21 0.14 0.07 0.04 0.01 0.00 0.00 0.00 0.00 0.00 0.00 0.00 0.00 0.00
0.65 0.61 0.32 0.19 0.39 0.67 0.96 1.08 1.05 0.97 0.78 0.63 0.39 0.32 0.25 0.29 0.46 0.64 0.82 0.67 0.52 0.41 0.24 0.18 0.20 0.08 0.03 0.13 0.24 0.23 0.15 0.08 0.03 0.00 0.00 0.00 0.00 0.00 0.00 0.00 0.00 0.00 0.00 0.00
0.55 0.49 0.34 0.39 0.48 0.59 0.70 0.74 0.61 0.49 0.39 0.27 0.18 0.29 0.36 0.47 0.48 0.60 0.61 0.40 0.34 0.26 0.09 0.10 0.10 0.03 0.07 0.13 0.13 0.10 0.06 0.03 0.01 0.00 0.00 0.00 0.00 0.00 0.00 0.00 0.00 0.00 0.00 0.00
0.96 0.87 0.59 0.33 0.32 0.36 0.37 0.28 0.23 0.22 0.20 0.18 0.17 0.28 0.35 0.42 0.45 0.47 0.42 0.37 0.27 0.12 0.09 0.09 0.05 0.07 0.10 0.07 0.03 0.01 0.00 0.00 0.00 0.00 0.00 0.00 0.00 0.00 0.00 0.00 0.00 0.00 0.00 0.00
0.96 0.62 0.41 0.25 0.14 0.10 0.10 0.12 0.13 0.22 0.26 0.24 0.23 0.24 0.25 0.27 0.29 0.30 0.23 0.23 0.14 0.12 0.09 0.06 0.07 0.06 0.03 0.00 0.00 0.00 0.00 0.00 0.00 0.00 0.00 0.00 0.00 0.00 0.00 0.00 0.00 0.00 0.00 0.00
0.61 0.31 0.17 0.12 0.07 0.08 0.11 0.16 0.19 0.25 0.28 0.23 0.20 0.20 0.18 0.25 0.24 0.16 0.13 0.16 0.13 0.08 0.06 0.04 0.02 0.01 0.00 0.00 0.00 0.00 0.00 0.00 0.00 0.00 0.00 0.00 0.00 0.00 0.00 0.00 0.00 0.00 0.00 0.00
0.47 0.21 0.08 0.07 0.05 0.06 0.07 0.11 0.11 0.13 0.15 0.10 0.09 0.10 0.12 0.16 0.13 0.09 0.09 0.08 0.06 0.04 0.01 0.00 0.01 0.01 0.00 0.00 0.00 0.00 0.00 0.00 0.00 0.00 0.00 0.00 0.00 0.00 0.00 0.00 0.00 0.00 0.00 0.00
0.34 0.16 0.11 0.12 0.09 0.07 0.06 0.06 0.05 0.05 0.05 0.06 0.08 0.08 0.07 0.07 0.03 0.01 0.01 0.01 0.01 0.00 0.00 0.01 0.00 0.00 0.01 0.00 0.00 0.00 0.00 0.00 0.00 0.00 0.00 0.00 0.00 0.00 0.00 0.00 0.00 0.00 0.00 0.00